Flag for Bosnia-Herzegovina Weather past 2 weeks in Sarajevo, Bosnia-Herzegovina

Now
79 °F

Passing clouds.


Feels Like: 80 °F
Forecast: 56 / 87 °F
Wind: 1 mph from North

Location: Sarajevo / Butmir

Current Time: Jul 5, 2015 at 12:10:24 PM

Latest Report: Jul 5, 2015 at 12:00 PM


Visibility: N/A

Pressure: 30.18 "Hg (28.42 "Hg at 526m altitude)

Humidity: 54%

Dew point: 61 °F

Location of SarajevoLocation

Historic Weather in Sarajevo — Graph

°F

Sarajevo temperature yesterday

Maximum temperature yesterday: 84 °F (at 4:00 PM)
Minimum temperature yesterday: 52 °F (at 5:00 AM)
Average temperature yesterday: 70 °F

Past Weeks' High & Low Weather Summary

 TemperatureHumidityPressure
High84 °F (Jul 4, 4:00 PM)100% (Jun 20, 10:30 PM)30.36 "Hg (Jun 20, 10:30 PM)
Low45 °F (Jun 22, 3:00 AM)31% (Jun 22, 6:00 PM)29.92 "Hg (Jun 23, 2:00 PM)
Average63 °F72%30.16 "Hg
* Reported Jun 20 11:00 AM — Jul 5 11:00 AM, Sarajevo, Weather by CustomWeather, © 2015

Note: Actual official high and low records may vary slightly from our data, if they occured in-between our weather recording intervals... More about our weather records

Advertising

Sarajevo weather history for previous 24 hours

 ConditionsComfort  
Time TempWeatherWind HumidityBarometerVisibility
11:00 AM
Sun, Jul 5
75 °FPassing clouds.2 mph54%30.21 "HgN/A
10:30 AM73 °FPassing clouds.1 mph65%30.21 "HgN/A
10:00 AM72 °FPassing clouds.1 mph65%30.21 "HgN/A
9:30 AM70 °FPassing clouds.1 mph69%30.24 "HgN/A
9:00 AM66 °FPassing clouds.1 mph73%30.24 "HgN/A
8:30 AM64 °FPassing clouds.1 mph78%30.24 "HgN/A
8:00 AM64 °FSunny.1 mph78%30.24 "Hg10 mi
7:30 AM63 °FSunny.No wind83%30.24 "Hg10 mi
7:00 AM61 °FSunny.2 mph88%30.24 "Hg10 mi
5:30 AM57 °FPassing clouds.1 mph94%30.24 "HgN/A
5:00 AM57 °FPassing clouds.1 mph94%30.24 "HgN/A
4:00 AM59 °FPassing clouds.No wind88%30.24 "HgN/A
2:00 AM61 °FClear.No wind88%30.24 "Hg10 mi
1:00 AM61 °FClear.1 mph88%30.24 "Hg10 mi
12:00 AM64 °FClear.No wind78%30.24 "Hg10 mi
11:00 PM
Sat, Jul 4
66 °FClear.1 mph73%30.24 "Hg10 mi
10:30 PM68 °FPassing clouds.1 mph69%30.24 "HgN/A
10:00 PM68 °FPassing clouds.3 mph69%30.21 "HgN/A
9:30 PM72 °FScattered clouds.2 mph61%30.21 "HgN/A
9:00 PM73 °FScattered clouds.3 mph57%30.21 "HgN/A
8:30 PM75 °FScattered clouds.5 mph54%30.21 "HgN/A
8:00 PM77 °FScattered clouds.5 mph54%30.21 "HgN/A
7:30 PM77 °FScattered clouds.6 mph54%30.21 "HgN/A
7:00 PM79 °FScattered clouds.7 mph51%30.21 "HgN/A
6:30 PM81 °FScattered clouds.8 mph45%30.21 "HgN/A
6:00 PM81 °FPassing clouds.8 mph45%30.21 "HgN/A
5:30 PM82 °FPassing clouds.8 mph45%30.21 "HgN/A
5:00 PM81 °FScattered clouds.8 mph48%30.21 "HgN/A
4:30 PM82 °FPassing clouds.7 mph42%30.21 "HgN/A
4:00 PM84 °FPassing clouds.6 mph40%30.21 "HgN/A
3:30 PM82 °FPassing clouds.3 mph42%30.21 "HgN/A
3:00 PM82 °FPassing clouds.5 mph37%30.21 "HgN/A
2:30 PM82 °FPassing clouds.5 mph37%30.24 "HgN/A
2:00 PM81 °FPassing clouds.2 mph39%30.24 "HgN/A
1:30 PM81 °FPassing clouds.3 mph45%30.24 "HgN/A
1:00 PM79 °FPassing clouds.1 mph45%30.24 "HgN/A
12:30 PM79 °FPassing clouds.3 mph54%30.27 "HgN/A
12:00 PM77 °FPassing clouds.2 mph54%30.27 "HgN/A
Weather by CustomWeather, © 2015

See weather overviewHow to use our weather pages